Date String (YYYY-MM-DD hh:mm:ss) UTC,Instrument flags,absolute air pressure of the measurement (hPa),sample flow rate (lpm),inlet stack bypass flow (lpm),air temperature of the measurement (°C),ambient temperature measured by the external sensor (°C),aerosol sample conditioner tube jacket temperature (°C),OPC LED temperature (°C),internal box temperature (°C),relative humidity of the measurement (%),span deviation,mass concentration of particles derived from Lorenz-Mie calculation of OPC scattering (μg/m³),mass concentration of particles derived from Lorenz-Mie calculation of OPC scattering (μg/m³),mass concentration of particles derived from Lorenz-Mie calculation of OPC scattering (μg/m³)
DateTimeUTC,F1_M11,P_M11,Q1_M11,Q2_M11,T1_M11,T2_M11,T3_M11,T4_M11,T5_M11,U1_M11,ZSPAN_M11,X0_M11,X2_M11,X1_M11
2023-07-17 04:00:00,SystemResetWarning,0833.2,4.99,000.00,028.9,026.5,000.0,037.3,030.4,18.9,0000.1,0015.78,0008.29,0007.40
2023-07-17 04:01:00,SystemResetWarning,0833.2,5.00,000.00,028.9,026.9,000.0,037.3,030.5,19.1,0000.4,0015.02,0008.11,0007.24
2023-07-17 04:02:00,SystemResetWarning,0833.2,5.01,000.00,029.0,027.2,000.0,037.4,030.6,18.8,0000.3,0014.90,0007.91,0007.01
2023-07-17 04:03:00,SystemResetWarning,0833.2,4.99,000.00,029.0,027.5,000.0,037.4,030.7,18.4,0000.0,0014.96,0007.62,0006.74
2023-07-17 04:04:00,SystemResetWarning,0833.2,4.99,000.00,029.1,027.7,000.0,037.4,030.8,18.4,0000.1,0014.32,0007.29,0006.44
2023-07-17 04:05:00,SystemResetWarning,0833.2,5.00,000.00,029.1,027.9,000.0,037.4,030.8,18.2,0000.4,0014.15,0006.95,0006.16
2023-07-17 04:06:00,SystemResetWarning,0833.2,4.99,000.00,029.1,027.3,000.0,037.4,030.8,17.8,0000.5,0013.49,0006.64,0005.87
2023-07-17 04:07:00,SystemResetWarning,0833.2,5.00,000.00,029.1,025.7,000.0,037.3,030.5,17.6,0000.9,0012.89,0006.29,0005.58
2023-07-17 04:08:00,SystemResetWarning,0833.1,5.01,000.00,029.0,025.4,000.0,037.2,030.4,17.7,0001.2,0012.80,0005.95,0005.30
2023-07-17 04:09:00,SystemResetWarning,0833.1,5.01,000.00,028.9,025.7,000.0,037.2,030.3,17.6,0001.5,0012.53,0005.59,0004.97
2023-07-17 04:10:00,SystemResetWarning,0833.2,5.00,000.00,028.9,026.0,000.0,037.3,030.3,18.0,0001.7,0012.37,0005.34,0004.74
2023-07-17 04:11:00,SystemResetWarning,0833.1,5.00,000.00,028.9,026.5,000.0,037.3,030.4,17.9,0000.3,0012.25,0005.16,0004.54
2023-07-17 04:12:00,SystemResetWarning,0833.2,5.00,000.00,028.9,026.8,000.0,037.3,030.5,17.9,0000.0,0012.40,0005.05,0004.41
2023-07-17 04:13:00,SystemResetWarning,0833.1,5.00,000.00,029.0,027.1,000.0,037.4,030.6,17.7,0000.0,0012.33,0004.92,0004.33
2023-07-17 04:14:00,SystemResetWarning,0833.1,5.00,000.00,029.0,027.4,000.0,037.4,030.7,17.6,0000.0,0012.35,0004.82,0004.26
2023-07-17 04:15:00,SystemResetWarning,0833.0,4.99,000.00,029.1,027.6,000.0,037.4,030.7,17.4,0001.6,0012.29,0004.78,0004.22
2023-07-17 04:16:00,SystemResetWarning,0833.4,4.99,000.00,029.1,027.8,000.0,037.4,030.8,17.4,0000.9,0011.72,0004.68,0004.13
2023-07-17 04:17:00,SystemResetWarning,0833.1,5.00,000.00,029.1,028.0,000.0,037.5,030.9,17.4,0000.0,0011.22,0004.56,0004.01
2023-07-17 04:18:00,SystemResetWarning,0833.2,4.99,000.00,029.2,026.9,000.0,037.4,030.8,17.4,0000.0,0011.45,0004.48,0003.94
2023-07-17 04:19:00,SystemResetWarning,0833.0,5.01,000.00,029.1,025.6,000.0,037.3,030.6,17.4,0000.0,0011.24,0004.40,0003.85
2023-07-17 04:20:00,SystemResetWarning,0833.2,5.01,000.00,029.1,025.6,000.0,037.2,030.4,17.3,0000.0,0010.89,0004.30,0003.77
2023-07-17 04:21:00,SystemResetWarning,0833.1,5.00,000.00,029.0,025.9,000.0,037.3,030.3,17.4,0000.0,0010.77,0004.23,0003.71
2023-07-17 04:22:00,SystemResetWarning,0833.1,4.99,000.00,029.0,026.2,000.0,037.3,030.4,17.3,0000.0,0011.08,0004.15,0003.64
2023-07-17 04:23:00,SystemResetWarning,0833.2,5.01,000.00,029.0,026.6,000.0,037.4,030.5,17.4,0000.0,0010.77,0004.06,0003.57
2023-07-17 04:24:00,SystemResetWarning,0833.3,4.99,000.00,029.0,027.0,000.0,037.4,030.6,18.0,0000.0,0010.47,0003.99,0003.52
2023-07-17 04:25:00,SystemResetWarning,0833.3,4.99,000.00,029.0,027.3,000.0,037.4,030.7,20.4,0000.0,0009.71,0003.97,0003.48
2023-07-17 04:26:00,SystemResetWarning,0833.3,4.99,000.00,029.1,027.5,000.0,037.4,030.7,20.0,0000.0,0009.21,0003.92,0003.44
2023-07-17 04:27:00,SystemResetWarning,0833.3,5.00,000.00,029.1,027.7,000.0,037.5,030.8,22.2,0000.0,0009.02,0003.86,0003.40
2023-07-17 04:28:00,SystemResetWarning,0833.3,5.00,000.00,029.2,027.9,000.0,037.5,030.9,25.3,0000.0,0008.85,0003.83,0003.38
2023-07-17 04:29:00,SystemResetWarning,0833.3,5.01,000.00,029.2,027.9,000.0,037.5,030.9,26.7,0000.0,0008.53,0003.81,0003.36
2023-07-17 04:30:00,SystemResetWarning,0833.2,4.98,000.00,029.2,026.4,000.0,037.4,030.8,27.3,0000.0,0007.93,0003.81,0003.34
2023-07-17 04:31:00,SystemResetWarning,0833.2,5.01,000.00,029.1,025.4,000.0,037.3,030.6,27.4,0000.0,0007.91,0003.78,0003.33
2023-07-17 04:32:00,SystemResetWarning,0833.2,5.01,000.00,029.1,025.6,000.0,037.3,030.5,27.6,0000.0,0007.81,0003.76,0003.31
2023-07-17 04:33:00,SystemResetWarning,0833.2,4.99,000.00,029.0,025.9,000.0,037.4,030.4,28.0,0000.0,0007.29,0003.75,0003.30
2023-07-17 04:34:00,SystemResetWarning,0833.3,4.99,000.00,029.0,026.3,000.0,037.4,030.5,28.1,0000.0,0006.77,0003.71,0003.28
2023-07-17 04:35:00,SystemResetWarning,0833.2,5.00,000.00,029.0,026.7,000.0,037.4,030.6,28.1,0000.0,0006.75,0003.74,0003.28
2023-07-17 04:36:00,SystemResetWarning,0833.3,5.02,000.00,029.1,027.0,000.0,037.4,030.6,28.2,0000.0,0007.07,0003.82,0003.33
2023-07-17 04:37:00,SystemResetWarning,0833.2,4.99,000.00,029.1,027.3,000.0,037.5,030.7,28.3,0000.0,0007.32,0003.94,0003.43
2023-07-17 04:38:00,SystemResetWarning,0833.3,4.99,000.00,029.1,027.6,000.0,037.5,030.8,27.6,0000.0,0008.36,0004.26,0003.70
2023-07-17 04:39:00,SystemResetWarning,0833.3,5.00,000.00,029.2,027.8,000.0,037.5,030.8,27.7,0000.2,0009.08,0004.64,0004.06
2023-07-17 04:40:00,SystemResetWarning,0833.3,5.00,000.00,029.2,028.0,000.0,037.5,030.9,27.9,0001.0,0009.90,0005.13,0004.47
2023-07-17 04:41:00,SystemResetWarning,0833.3,4.99,000.00,029.2,027.7,000.0,037.5,030.9,27.9,0001.2,0011.35,0005.62,0004.89
2023-07-17 04:42:00,SystemResetWarning,0833.3,5.00,000.00,029.2,025.9,000.0,037.4,030.6,28.2,0000.8,0012.50,0006.03,0005.27
2023-07-17 04:43:00,SystemResetWarning,0833.2,5.01,000.00,029.1,025.3,000.0,037.3,030.5,28.3,0000.8,0013.45,0006.52,0005.67
2023-07-17 04:44:00,SystemResetWarning,0833.3,5.01,000.00,029.0,025.6,000.0,037.3,030.3,28.4,0000.6,0015.21,0007.04,0006.10
2023-07-17 04:45:00,SystemResetWarning,0833.2,5.00,000.00,029.0,026.0,000.0,037.4,030.4,28.4,0000.1,0015.92,0007.53,0006.55
2023-07-17 04:46:00,SystemResetWarning,0833.2,5.00,000.00,029.0,026.4,000.0,037.4,030.5,28.4,-000.1,0017.02,0008.00,0007.00
2023-07-17 04:47:00,SystemResetWarning,0833.3,5.00,000.00,029.0,026.7,000.0,037.4,030.5,28.5,-000.1,0017.73,0008.40,0007.38
2023-07-17 04:48:00,SystemResetWarning,0833.3,5.00,000.00,029.0,027.1,000.0,037.5,030.6,28.4,0000.1,0018.38,0008.81,0007.72
2023-07-17 04:49:00,SystemResetWarning,0833.4,5.00,000.00,029.1,027.3,000.0,037.5,030.7,28.4,-000.1,0018.92,0009.08,0007.98
2023-07-17 04:50:00,SystemResetWarning,0833.4,4.99,000.00,029.1,027.6,000.0,037.5,030.8,28.3,-000.1,0018.65,0009.20,0008.09
2023-07-17 04:51:00,SystemResetWarning,0833.4,4.99,000.00,029.2,027.8,000.0,037.5,030.8,28.2,-000.2,0018.45,0009.24,0008.15
2023-07-17 04:52:00,SystemResetWarning,0833.4,5.00,000.00,029.2,028.0,000.0,037.5,030.9,28.0,-000.4,0018.38,0009.23,0008.18
2023-07-17 04:53:00,SystemResetWarning,0833.4,5.00,000.00,029.2,027.3,000.0,037.5,030.9,27.9,-000.5,0017.75,0009.28,0008.22
2023-07-17 04:54:00,SystemResetWarning,0833.3,5.01,000.00,029.2,025.7,000.0,037.4,030.7,28.0,-000.4,0017.70,0009.32,0008.27
2023-07-17 04:55:00,SystemResetWarning,0833.3,5.00,000.00,029.1,025.4,000.0,037.3,030.5,28.1,-000.6,0017.05,0009.37,0008.32
2023-07-17 04:56:00,SystemResetWarning,0833.4,5.01,000.00,029.0,025.6,000.0,037.3,030.3,28.3,-000.3,0017.15,0009.46,0008.37
2023-07-17 04:57:00,SystemResetWarning,0833.4,5.01,000.00,029.0,026.0,000.0,037.4,030.4,28.3,0000.0,0016.94,0009.51,0008.39
2023-07-17 04:58:00,SystemResetWarning,0833.4,4.99,000.00,029.0,026.4,000.0,037.4,030.5,28.2,0000.0,0016.74,0009.56,0008.41
2023-07-17 04:59:00,SystemResetWarning,0833.4,5.00,000.00,029.0,026.8,000.0,037.4,030.6,28.1,-000.3,0016.76,0009.52,0008.42
